TimeCST,TemperatureF,Dew PointF,Humidity,Sea Level PressureIn,VisibilityMPH,Wind Direction,Wind SpeedMPH,Gust SpeedMPH,PrecipitationIn,Events,Conditions,WindDirDegrees,DateUTC
12:15 AM,23.0,21.2,93,30.22,5.0,Calm,Calm,-,N/A,,Clear,0,2013-01-02 06:15:00
12:55 AM,21.2,19.4,93,30.22,5.0,Calm,Calm,-,N/A,,Clear,0,2013-01-02 06:55:00
1:15 AM,21.2,19.4,93,30.22,5.0,NNW,5.8,-,N/A,,Clear,330,2013-01-02 07:15:00
1:55 AM,21.2,19.4,93,30.25,5.0,Calm,Calm,-,N/A,,Clear,0,2013-01-02 07:55:00
2:15 AM,19.4,19.4,100,30.25,4.0,Calm,Calm,-,N/A,,Clear,0,2013-01-02 08:15:00
2:35 AM,19.4,17.6,93,30.24,5.0,Calm,Calm,-,N/A,,Clear,0,2013-01-02 08:35:00
2:55 AM,19.4,17.6,93,30.24,5.0,Calm,Calm,-,N/A,,Clear,0,2013-01-02 08:55:00
3:15 AM,19.4,17.6,93,30.24,4.0,Calm,Calm,-,N/A,,Clear,0,2013-01-02 09:15:00
3:35 AM,19.4,17.6,93,30.23,5.0,Calm,Calm,-,N/A,,Mostly Cloudy,0,2013-01-02 09:35:00
3:55 AM,19.4,17.6,93,30.23,6.0,Calm,Calm,-,N/A,,Mostly Cloudy,0,2013-01-02 09:55:00
4:15 AM,19.4,19.4,100,30.24,5.0,Calm,Calm,-,N/A,,Overcast,0,2013-01-02 10:15:00
4:55 AM,23.0,21.2,93,30.23,5.0,West,4.6,-,N/A,,Overcast,260,2013-01-02 10:55:00
5:15 AM,21.2,19.4,93,30.23,4.0,WNW,3.5,-,N/A,,Overcast,300,2013-01-02 11:15:00
5:35 AM,21.2,19.4,93,30.23,4.0,West,3.5,-,N/A,,Overcast,260,2013-01-02 11:35:00
6:45 AM,21.2,19.4,93,30.24,4.0,Calm,Calm,-,N/A,,Overcast,0,2013-01-02 12:45:00
7:45 AM,21.2,19.4,93,30.24,3.0,Calm,Calm,-,N/A,,Overcast,0,2013-01-02 13:45:00
8:45 AM,19.4,19.4,100,30.23,2.0,SSE,6.9,-,N/A,,Overcast,160,2013-01-02 14:45:00
9:45 AM,23.0,19.4,86,30.25,4.0,SSE,4.6,-,N/A,,Mostly Cloudy,160,2013-01-02 15:45:00
11:52 AM,28.4,24.8,86,30.22,8.0,Calm,Calm,-,N/A,,Mostly Cloudy,0,2013-01-02 17:52:00
12:53 PM,32.0,23.0,69,30.19,10.0,Calm,Calm,-,N/A,,Mostly Cloudy,0,2013-01-02 18:53:00
1:50 PM,32.0,19.4,60,30.18,10.0,South,4.6,-,N/A,,Mostly Cloudy,170,2013-01-02 19:50:00
2:45 PM,33.8,19.4,56,30.17,10.0,South,5.8,-,N/A,,Partly Cloudy,180,2013-01-02 20:45:00
3:49 PM,33.8,21.2,60,30.18,10.0,Calm,Calm,-,N/A,,Mostly Cloudy,0,2013-01-02 21:49:00
5:45 PM,30.2,23.0,75,30.19,10.0,Calm,Calm,-,N/A,,Scattered Clouds,0,2013-01-02 23:45:00
6:45 PM,30.2,23.0,75,30.20,10.0,Calm,Calm,-,N/A,,Clear,0,2013-01-03 00:45:00
7:45 PM,28.4,21.2,74,30.21,10.0,Calm,Calm,-,N/A,,Clear,0,2013-01-03 01:45:00
8:15 PM,28.4,19.4,69,30.22,10.0,Calm,Calm,-,N/A,,Clear,0,2013-01-03 02:15:00
8:35 PM,28.4,19.4,69,30.23,10.0,Calm,Calm,-,N/A,,Clear,0,2013-01-03 02:35:00
8:45 PM,28.4,19.4,69,30.23,10.0,Calm,Calm,-,N/A,,Clear,0,2013-01-03 02:45:00
8:55 PM,28.4,19.4,69,30.23,10.0,Calm,Calm,-,N/A,,Clear,0,2013-01-03 02:55:00
9:15 PM,28.4,19.4,69,30.24,10.0,Calm,Calm,-,N/A,,Clear,0,2013-01-03 03:15:00
9:35 PM,28.4,19.4,69,30.24,10.0,West,3.5,-,N/A,,Partly Cloudy,270,2013-01-03 03:35:00
9:55 PM,28.4,19.4,69,30.24,10.0,WNW,3.5,-,N/A,,Scattered Clouds,290,2013-01-03 03:55:00
10:15 PM,28.4,17.6,64,30.24,10.0,Calm,Calm,-,N/A,,Clear,0,2013-01-03 04:15:00
10:55 PM,26.6,19.4,74,30.24,10.0,Calm,Calm,-,N/A,,Clear,0,2013-01-03 04:55:00
11:15 PM,26.6,19.4,74,30.24,10.0,Calm,Calm,-,N/A,,Clear,0,2013-01-03 05:15:00
11:35 PM,26.6,19.4,74,30.24,10.0,West,3.5,-,N/A,,Clear,280,2013-01-03 05:35:00
11:55 PM,26.6,19.4,74,30.24,10.0,WNW,3.5,-,N/A,,Clear,290,2013-01-03 05:55:00